Flag for Austria Weather past 2 weeks in Schärding, Upper Austria, Austria

Now
28 °F

Light snow. Ice fog.


Feels Like: 20 °F
Forecast: 18 / 30 °F
Wind: 9 mph from East

Location: Linz / Hoersching-Flughafen

Current Time: Dec 27, 2014 at 7:41:08 PM

Latest Report: Dec 27, 2014 at 6:50 PM


Visibility: 2 mi

Pressure: 29.56 "Hg

Humidity: 93%

Dew point: 27 °F

Location of SchärdingLocation

Historic Weather in Schärding — Graph

°F

Schärding temperature yesterday

Maximum temperature yesterday: 39 °F (at 12:20 AM)
Minimum temperature yesterday: 32 °F (at 5:20 PM)
Average temperature yesterday: 35 °F

Past Weeks' High & Low Weather Summary

 TemperatureHumidityPressure
High57 °F (Dec 19, 1:50 PM)100% (Dec 13, 11:20 PM)30.48 "Hg (Dec 13, 11:20 PM)
Low23 °F (Dec 27, 5:50 AM)53% (Dec 23, 4:20 PM)29.56 "Hg (Dec 27, 5:20 PM)
Average40 °F82%30.10 "Hg
* Reported Dec 12 6:20 PM — Dec 27 6:20 PM, Schärding, Weather by CustomWeather, © 2014

Note: Actual official high and low records may vary slightly from our data, if they occured in-between our weather recording intervals... More about our weather records

Advertising

Schärding weather history for previous 24 hours

 ConditionsComfort  
Time TempWeatherWind HumidityBarometerVisibility
6:20 PM
Dec 27
28 °FLight snow. Passing clouds.9 mph86%29.56 "Hg2 mi
5:50 PM28 °FLight snow. Passing clouds.12 mph86%29.56 "Hg3 mi
5:20 PM28 °FLight snow. Passing clouds.9 mph80%29.56 "Hg6 mi
4:50 PM30 °FPassing clouds.9 mph75%29.59 "HgN/A
4:20 PM30 °FPassing clouds.12 mph75%29.59 "HgN/A
3:50 PM30 °FOvercast.10 mph69%29.59 "HgN/A
3:20 PM30 °FPartly sunny.10 mph69%29.59 "HgN/A
2:50 PM28 °FPartly sunny.15 mph74%29.62 "HgN/A
2:20 PM28 °FSunny.14 mph74%29.62 "Hg10 mi
1:50 PM28 °FSunny.16 mph74%29.62 "Hg10 mi
1:20 PM28 °FSunny.14 mph74%29.65 "Hg10 mi
12:50 PM28 °FSunny.15 mph74%29.68 "Hg10 mi
12:20 PM28 °FSunny.15 mph74%29.71 "Hg10 mi
11:50 AM28 °FPartly sunny.15 mph80%29.74 "HgN/A
11:20 AM27 °FPartly sunny.17 mph86%29.77 "HgN/A
10:50 AM27 °FBroken clouds.15 mph86%29.80 "HgN/A
10:20 AM27 °FPartly sunny.13 mph86%29.83 "HgN/A
9:50 AM27 °FBroken clouds.15 mph86%29.83 "HgN/A
9:20 AM27 °FPartly sunny.14 mph93%29.86 "HgN/A
8:50 AM27 °FPartly sunny.13 mph86%29.92 "HgN/A
8:20 AM27 °FPartly sunny.12 mph93%29.92 "Hg5 mi
7:50 AM27 °FPassing clouds.12 mph93%29.95 "Hg4 mi
7:20 AM27 °FPassing clouds.9 mph93%29.98 "Hg6 mi
6:50 AM25 °FPassing clouds.3 mph93%30.01 "Hg5 mi
6:20 AM23 °FPassing clouds.3 mph100%30.04 "Hg5 mi
5:50 AM23 °FPassing clouds.3 mph93%30.07 "Hg5 mi
5:20 AM25 °FPassing clouds.2 mph93%30.07 "HgN/A
4:50 AM25 °FPassing clouds.3 mph93%30.09 "HgN/A
4:20 AM27 °FPassing clouds.8 mph86%30.12 "HgN/A
3:50 AM27 °FPassing clouds.7 mph86%30.12 "HgN/A
3:20 AM27 °FChilly.3 mph93%30.12 "HgN/A
2:50 AM27 °FChilly.6 mph93%30.15 "HgN/A
2:20 AM27 °FChilly.7 mph86%30.15 "HgN/A
1:50 AM28 °FChilly.8 mph86%30.18 "HgN/A
1:20 AM30 °FPassing clouds.13 mph86%30.18 "HgN/A
12:50 AM30 °FPassing clouds.14 mph93%30.18 "HgN/A
12:20 AM30 °FPassing clouds.8 mph93%30.21 "HgN/A
11:50 PM
Dec 26
32 °FPassing clouds.12 mph93%30.21 "HgN/A
11:20 PM32 °FSnow flurries. Partly cloudy.6 mph93%30.21 "Hg5 mi
10:50 PM32 °FPartly cloudy.9 mph93%30.21 "HgN/A
10:20 PM32 °FSnow flurries. Passing clouds.10 mph93%30.21 "HgN/A
9:50 PM32 °FSnow flurries. Passing clouds.12 mph93%30.24 "Hg2 mi
9:20 PM32 °FScattered showers. Passing clouds.6 mph93%30.24 "HgN/A
8:50 PM32 °FSnow flurries. Passing clouds.13 mph93%30.24 "HgN/A
8:20 PM32 °FPassing clouds.8 mph93%30.27 "HgN/A
7:50 PM32 °FPassing clouds.7 mph87%30.27 "HgN/A
7:20 PM32 °FPartly cloudy.2 mph87%30.27 "HgN/A
Weather by CustomWeather, © 2014

See weather overviewHow to use our weather pages